Year,Month,Day,Hour,Minute,Value (Times are PST for temperature in C)
2021,05,05,08,06,10.30
2021,05,05,08,07,10.30
2021,05,05,08,08,10.40
2021,05,05,08,09,10.40
2021,05,05,08,10,10.50
2021,05,05,08,11,10.60
2021,05,05,08,12,10.60
2021,05,05,08,13,10.70
2021,05,05,08,14,10.80
2021,05,05,08,15,10.80
2021,05,05,08,16,10.90
2021,05,05,08,17,10.90
2021,05,05,08,18,10.90
2021,05,05,08,19,11.00
2021,05,05,08,20,11.10
2021,05,05,08,21,11.10
2021,05,05,08,22,11.10
2021,05,05,08,23,11.20
2021,05,05,08,24,11.20
2021,05,05,08,25,11.30
2021,05,05,08,26,11.30
2021,05,05,08,27,11.40
2021,05,05,08,28,11.50
2021,05,05,08,29,11.60
2021,05,05,08,30,11.60
2021,05,05,08,31,11.60
2021,05,05,08,32,11.60
2021,05,05,08,33,11.60
2021,05,05,08,34,11.50
2021,05,05,08,35,11.40
2021,05,05,08,36,11.40
2021,05,05,08,37,11.40
2021,05,05,08,38,11.40
2021,05,05,08,39,11.40
2021,05,05,08,40,11.40
2021,05,05,08,41,11.40
2021,05,05,08,42,11.50
2021,05,05,08,43,11.60
2021,05,05,08,44,11.60
2021,05,05,08,45,11.70
2021,05,05,08,46,11.80
2021,05,05,08,47,11.80
2021,05,05,08,48,12.00
2021,05,05,08,49,12.10
2021,05,05,08,50,12.20
2021,05,05,08,51,12.30
2021,05,05,08,52,12.40
2021,05,05,08,53,12.40
2021,05,05,08,54,12.50
2021,05,05,08,55,12.50
2021,05,05,08,56,12.50
2021,05,05,08,57,12.60
2021,05,05,08,58,12.60
2021,05,05,08,59,12.60
2021,05,05,09,00,12.60
2021,05,05,09,01,12.60
2021,05,05,09,02,12.60
2021,05,05,09,03,12.70
2021,05,05,09,04,12.70
2021,05,05,09,05,12.70
2021,05,05,09,06,12.80
2021,05,05,09,07,12.80
2021,05,05,09,08,12.80
2021,05,05,09,09,12.80
2021,05,05,09,10,12.80
2021,05,05,09,11,12.80
2021,05,05,09,12,12.90
2021,05,05,09,13,12.90
2021,05,05,09,14,13.00
2021,05,05,09,15,13.00
2021,05,05,09,16,13.00
2021,05,05,09,17,13.00
2021,05,05,09,18,13.10
2021,05,05,09,19,13.10
2021,05,05,09,20,13.10
2021,05,05,09,21,13.10
2021,05,05,09,22,13.10
2021,05,05,09,23,13.10
2021,05,05,09,24,13.10
2021,05,05,09,25,13.00
2021,05,05,09,26,12.90
2021,05,05,09,27,12.90
2021,05,05,09,28,12.80
2021,05,05,09,29,12.90
2021,05,05,09,30,12.90
2021,05,05,09,31,13.00
2021,05,05,09,32,13.10
2021,05,05,09,33,13.20
2021,05,05,09,34,13.20
2021,05,05,09,35,13.30
2021,05,05,09,36,13.40
2021,05,05,09,37,13.40
2021,05,05,09,38,13.40
2021,05,05,09,39,13.50
2021,05,05,09,40,13.50
2021,05,05,09,41,13.50
2021,05,05,09,42,13.50
2021,05,05,09,43,13.50
2021,05,05,09,44,13.50
2021,05,05,09,45,13.50
2021,05,05,09,46,13.50
2021,05,05,09,47,13.50
2021,05,05,09,48,13.50
2021,05,05,09,49,13.60
2021,05,05,09,50,13.60
2021,05,05,09,51,13.70
2021,05,05,09,52,13.70
2021,05,05,09,53,13.70
2021,05,05,09,54,13.80
2021,05,05,09,55,13.80
2021,05,05,09,56,13.90
2021,05,05,09,57,13.90
2021,05,05,09,58,13.90
2021,05,05,09,59,13.90
2021,05,05,10,00,13.90
2021,05,05,10,01,13.90
2021,05,05,10,02,13.90
2021,05,05,10,03,13.90
2021,05,05,10,04,13.90
2021,05,05,10,05,14.00
2021,05,05,10,06,14.00
2021,05,05,10,07,14.00
2021,05,05,10,08,13.80
2021,05,05,10,09,13.70
2021,05,05,10,10,13.70
2021,05,05,10,11,13.60
2021,05,05,10,12,13.60
2021,05,05,10,13,13.50
2021,05,05,10,14,13.50
2021,05,05,10,15,13.50
2021,05,05,10,16,13.50
2021,05,05,10,17,13.60
2021,05,05,10,18,13.60
2021,05,05,10,19,13.60
2021,05,05,10,20,13.60
2021,05,05,10,21,13.60
2021,05,05,10,22,13.60
2021,05,05,10,23,13.60
2021,05,05,10,24,13.60
2021,05,05,10,25,13.60
2021,05,05,10,26,13.70
2021,05,05,10,27,13.70
2021,05,05,10,28,13.70
2021,05,05,10,29,13.70
2021,05,05,10,30,13.70
2021,05,05,10,31,13.70
2021,05,05,10,32,13.70
2021,05,05,10,33,13.70
2021,05,05,10,34,13.70
2021,05,05,10,35,13.70
2021,05,05,10,36,13.70
2021,05,05,10,37,13.80
2021,05,05,10,38,13.80
2021,05,05,10,39,13.80
2021,05,05,10,40,13.80
2021,05,05,10,41,13.80
2021,05,05,10,42,13.80
2021,05,05,10,43,13.80
2021,05,05,10,44,13.70
2021,05,05,10,45,13.70
2021,05,05,10,46,13.80
2021,05,05,10,47,13.80
2021,05,05,10,48,13.80
2021,05,05,10,49,13.80
2021,05,05,10,50,13.80
2021,05,05,10,51,13.80
2021,05,05,10,52,13.80
2021,05,05,10,53,13.80
2021,05,05,10,54,13.90
2021,05,05,10,55,13.90
2021,05,05,10,56,13.90
2021,05,05,10,57,13.90
2021,05,05,10,58,13.90
2021,05,05,10,59,13.80
2021,05,05,11,00,13.80
2021,05,05,11,01,13.80
2021,05,05,11,02,13.80
2021,05,05,11,03,13.90
2021,05,05,11,04,13.90
2021,05,05,11,05,13.90
2021,05,05,11,06,13.90
2021,05,05,11,07,13.90
2021,05,05,11,08,13.90
2021,05,05,11,09,13.90
2021,05,05,11,10,13.90
2021,05,05,11,11,13.80
2021,05,05,11,12,13.80
2021,05,05,11,13,13.80
2021,05,05,11,14,13.80
2021,05,05,11,15,13.80
2021,05,05,11,16,13.70
2021,05,05,11,17,13.80
2021,05,05,11,18,13.80
2021,05,05,11,19,13.80
2021,05,05,11,20,13.80
2021,05,05,11,21,13.80
2021,05,05,11,22,13.90
2021,05,05,11,23,13.90
2021,05,05,11,24,13.90
2021,05,05,11,25,13.90
2021,05,05,11,26,13.90
2021,05,05,11,27,13.90
2021,05,05,11,28,13.90
2021,05,05,11,29,13.90
2021,05,05,11,30,13.90
2021,05,05,11,31,13.90
2021,05,05,11,32,13.90
2021,05,05,11,33,13.90
2021,05,05,11,34,13.80
2021,05,05,11,35,13.80
2021,05,05,11,36,13.80
2021,05,05,11,37,13.80
2021,05,05,11,38,13.80
2021,05,05,11,39,13.80
2021,05,05,11,40,13.80
2021,05,05,11,41,13.70
2021,05,05,11,42,13.70
2021,05,05,11,43,13.70
2021,05,05,11,44,13.70
2021,05,05,11,45,13.70
2021,05,05,11,46,13.70
2021,05,05,11,47,13.60
2021,05,05,11,48,13.60
2021,05,05,11,49,13.60
2021,05,05,11,50,13.50
2021,05,05,11,51,13.50
2021,05,05,11,52,13.50
2021,05,05,11,53,13.50
2021,05,05,11,54,13.40
2021,05,05,11,55,13.40
2021,05,05,11,56,13.40
2021,05,05,11,57,13.40
2021,05,05,11,58,13.40
2021,05,05,11,59,13.30
2021,05,05,12,00,13.20
2021,05,05,12,01,13.10
2021,05,05,12,02,13.10
2021,05,05,12,03,13.00
2021,05,05,12,04,12.90
2021,05,05,12,05,12.90
2021,05,05,12,06,12.90
2021,05,05,12,07,13.00
2021,05,05,12,08,13.00
2021,05,05,12,09,13.00
2021,05,05,12,10,13.00
2021,05,05,12,11,13.00
2021,05,05,12,12,13.00
2021,05,05,12,13,13.00
2021,05,05,12,14,13.00
2021,05,05,12,15,13.00
2021,05,05,12,16,13.10
2021,05,05,12,17,13.10
2021,05,05,12,18,13.20
2021,05,05,12,19,13.20
2021,05,05,12,20,13.20
2021,05,05,12,21,13.30
2021,05,05,12,22,13.30
2021,05,05,12,23,13.30
2021,05,05,12,24,13.40
2021,05,05,12,25,13.40
2021,05,05,12,26,13.40
2021,05,05,12,27,13.40
2021,05,05,12,28,13.40
2021,05,05,12,29,13.40
2021,05,05,12,30,13.40
2021,05,05,12,31,13.40
2021,05,05,12,32,13.40
2021,05,05,12,33,13.40
2021,05,05,12,34,13.40
2021,05,05,12,35,13.40
2021,05,05,12,36,13.40
2021,05,05,12,37,13.40
2021,05,05,12,38,13.40
2021,05,05,12,39,13.50
2021,05,05,12,40,13.50
2021,05,05,12,41,13.60
2021,05,05,12,42,13.60
2021,05,05,12,43,13.60
2021,05,05,12,44,13.60
2021,05,05,12,45,13.60
2021,05,05,12,46,13.60
2021,05,05,12,47,13.60
2021,05,05,12,48,13.60
2021,05,05,12,49,13.60
2021,05,05,12,50,13.60
2021,05,05,12,51,13.70
2021,05,05,12,52,13.70
2021,05,05,12,53,13.70
2021,05,05,12,54,13.70
2021,05,05,12,55,13.70
2021,05,05,12,56,13.70
2021,05,05,12,57,13.80
2021,05,05,12,58,13.80
2021,05,05,12,59,13.80
2021,05,05,13,00,13.80
2021,05,05,13,01,13.90
2021,05,05,13,02,13.90
2021,05,05,13,03,13.90
2021,05,05,13,04,14.00
2021,05,05,13,05,14.00
2021,05,05,13,06,14.10
2021,05,05,13,07,14.10
2021,05,05,13,08,14.20
2021,05,05,13,09,14.20
2021,05,05,13,10,14.20
2021,05,05,13,11,14.20
2021,05,05,13,12,14.20
2021,05,05,13,13,14.20
2021,05,05,13,14,14.30
2021,05,05,13,15,14.40
2021,05,05,13,16,14.50
2021,05,05,13,17,14.50
2021,05,05,13,18,14.60
2021,05,05,13,19,14.60
2021,05,05,13,20,14.60
2021,05,05,13,21,14.60
2021,05,05,13,22,14.60
2021,05,05,13,23,14.60
2021,05,05,13,24,14.70
2021,05,05,13,25,14.70
2021,05,05,13,26,14.80
2021,05,05,13,27,14.80
2021,05,05,13,28,14.70
2021,05,05,13,29,14.70
2021,05,05,13,30,14.70
2021,05,05,13,31,14.70
2021,05,05,13,32,14.70
2021,05,05,13,33,14.80
2021,05,05,13,34,14.80
2021,05,05,13,35,14.80
2021,05,05,13,36,14.80
2021,05,05,13,37,14.90
2021,05,05,13,38,15.00
2021,05,05,13,39,15.10
2021,05,05,13,40,15.10
2021,05,05,13,41,15.20
2021,05,05,13,42,15.20
2021,05,05,13,43,15.30
2021,05,05,13,44,15.30
2021,05,05,13,45,15.30
2021,05,05,13,46,15.30
2021,05,05,13,47,15.40
2021,05,05,13,48,15.40
2021,05,05,13,49,15.50
2021,05,05,13,50,15.50
2021,05,05,13,51,15.50
2021,05,05,13,52,15.60
2021,05,05,13,53,15.60
2021,05,05,13,54,15.70
2021,05,05,13,55,15.80
2021,05,05,13,56,15.80
2021,05,05,13,57,15.80
2021,05,05,13,58,15.80
2021,05,05,13,59,15.80
2021,05,05,14,00,15.90
2021,05,05,14,01,15.90
2021,05,05,14,02,15.90
2021,05,05,14,03,15.90
2021,05,05,14,04,15.90
2021,05,05,14,05,16.00
2021,05,05,14,06,16.10
2021,05,05,14,07,16.10
2021,05,05,14,08,16.20
2021,05,05,14,09,16.20
2021,05,05,14,10,16.30
2021,05,05,14,11,16.30
2021,05,05,14,12,16.40
2021,05,05,14,13,16.40
2021,05,05,14,14,16.40
2021,05,05,14,15,16.50
2021,05,05,14,16,16.60
2021,05,05,14,17,16.60
2021,05,05,14,18,16.60
2021,05,05,14,19,16.60
2021,05,05,14,20,16.60
2021,05,05,14,21,16.50
2021,05,05,14,22,16.40
2021,05,05,14,23,16.40
2021,05,05,14,24,16.40
2021,05,05,14,25,16.40
2021,05,05,14,26,16.40
2021,05,05,14,27,16.50
2021,05,05,14,28,16.60
2021,05,05,14,29,16.70
2021,05,05,14,30,16.70
2021,05,05,14,31,16.70
2021,05,05,14,32,16.80
2021,05,05,14,33,16.80
2021,05,05,14,34,16.90
2021,05,05,14,35,17.00
2021,05,05,14,36,17.00
2021,05,05,14,37,17.10
2021,05,05,14,38,17.10
2021,05,05,14,39,17.10
2021,05,05,14,40,17.10
2021,05,05,14,41,17.10
2021,05,05,14,42,17.10
2021,05,05,14,43,17.20
2021,05,05,14,44,17.20
2021,05,05,14,45,17.10
2021,05,05,14,46,17.10
2021,05,05,14,47,17.10
2021,05,05,14,48,17.20
2021,05,05,14,49,17.20
2021,05,05,14,50,17.10
2021,05,05,14,51,17.10
2021,05,05,14,52,17.10
2021,05,05,14,53,17.10
2021,05,05,14,54,17.10
2021,05,05,14,55,17.10
2021,05,05,14,56,17.10
2021,05,05,14,57,17.10
2021,05,05,14,58,17.10
2021,05,05,14,59,17.10
2021,05,05,15,00,17.10
2021,05,05,15,01,17.20
2021,05,05,15,02,17.10
2021,05,05,15,03,17.10
2021,05,05,15,04,17.10
2021,05,05,15,05,17.10
2021,05,05,15,06,17.20
2021,05,05,15,07,17.20
2021,05,05,15,08,17.20
2021,05,05,15,09,17.20
2021,05,05,15,10,17.30
2021,05,05,15,11,17.30
2021,05,05,15,12,17.30
2021,05,05,15,13,17.30
2021,05,05,15,14,17.30
2021,05,05,15,15,17.30
2021,05,05,15,16,17.20
2021,05,05,15,17,17.20
2021,05,05,15,18,17.20
2021,05,05,15,19,17.20
2021,05,05,15,20,17.20
2021,05,05,15,21,17.20
2021,05,05,15,22,17.20
2021,05,05,15,23,17.20
2021,05,05,15,24,17.20
2021,05,05,15,25,17.20
2021,05,05,15,26,17.20
2021,05,05,15,27,17.10
2021,05,05,15,28,17.10
2021,05,05,15,29,17.10
2021,05,05,15,30,17.10
2021,05,05,15,31,17.10
2021,05,05,15,32,17.10
2021,05,05,15,33,17.10
2021,05,05,15,34,17.10
2021,05,05,15,35,17.10
2021,05,05,15,36,17.00
2021,05,05,15,37,17.00
2021,05,05,15,38,16.90
2021,05,05,15,39,16.90
2021,05,05,15,40,16.90
2021,05,05,15,41,16.90
2021,05,05,15,42,16.80
2021,05,05,15,43,16.80
2021,05,05,15,44,16.80
2021,05,05,15,45,16.80
2021,05,05,15,46,16.80
2021,05,05,15,47,16.90
2021,05,05,15,48,16.90
2021,05,05,15,49,16.80
2021,05,05,15,50,16.80
2021,05,05,15,51,16.80
2021,05,05,15,52,16.80
2021,05,05,15,53,16.70
2021,05,05,15,54,16.70
2021,05,05,15,55,16.70
2021,05,05,15,56,16.70
2021,05,05,15,57,16.70
2021,05,05,15,58,16.70
2021,05,05,15,59,16.70
2021,05,05,16,00,16.70
2021,05,05,16,01,16.70
2021,05,05,16,02,16.70
2021,05,05,16,03,16.70
2021,05,05,16,04,16.70
2021,05,05,16,05,16.80
2021,05,05,16,06,16.90
2021,05,05,16,07,16.90
2021,05,05,16,08,17.00
2021,05,05,16,09,17.10
2021,05,05,16,10,17.20
2021,05,05,16,11,17.30
2021,05,05,16,12,17.30
2021,05,05,16,13,17.40
2021,05,05,16,14,17.40
2021,05,05,16,15,17.40
2021,05,05,16,16,17.50
2021,05,05,16,17,17.50
2021,05,05,16,18,17.40
2021,05,05,16,19,17.40
2021,05,05,16,20,17.40
2021,05,05,16,21,17.50
2021,05,05,16,22,17.50
2021,05,05,16,23,17.60
2021,05,05,16,24,17.60
2021,05,05,16,25,17.70
2021,05,05,16,26,17.70
2021,05,05,16,27,17.60
2021,05,05,16,28,17.60
2021,05,05,16,29,17.60
2021,05,05,16,30,17.70
2021,05,05,16,31,17.70
2021,05,05,16,32,17.80
2021,05,05,16,33,17.80
2021,05,05,16,34,17.80
2021,05,05,16,35,17.90
2021,05,05,16,36,17.90
2021,05,05,16,37,17.90
2021,05,05,16,38,17.90
2021,05,05,16,39,17.90
2021,05,05,16,40,17.90
2021,05,05,16,41,17.80
2021,05,05,16,42,17.70
2021,05,05,16,43,17.70
2021,05,05,16,44,17.60
2021,05,05,16,45,17.60
2021,05,05,16,46,17.60
2021,05,05,16,47,17.60
2021,05,05,16,48,17.60
2021,05,05,16,49,17.60
2021,05,05,16,50,17.60
2021,05,05,16,51,17.60
2021,05,05,16,52,17.60
2021,05,05,16,53,17.60
2021,05,05,16,54,17.60
2021,05,05,16,55,17.60
2021,05,05,16,56,17.60
2021,05,05,16,57,17.60
2021,05,05,16,58,17.70
2021,05,05,16,59,17.70
2021,05,05,17,00,17.70
2021,05,05,17,01,17.70
2021,05,05,17,02,17.70
2021,05,05,17,03,17.80
2021,05,05,17,04,17.80
2021,05,05,17,05,17.80
2021,05,05,17,06,17.80
2021,05,05,17,07,17.80
2021,05,05,17,08,17.80
2021,05,05,17,09,17.80
2021,05,05,17,10,17.80
2021,05,05,17,11,17.80
2021,05,05,17,12,17.80
2021,05,05,17,13,17.90
2021,05,05,17,14,17.90
2021,05,05,17,15,17.90
2021,05,05,17,16,17.90
2021,05,05,17,17,17.90
2021,05,05,17,18,17.90
2021,05,05,17,19,17.90
2021,05,05,17,20,17.90
2021,05,05,17,21,17.90
2021,05,05,17,22,17.90
2021,05,05,17,23,17.90
2021,05,05,17,24,17.90
2021,05,05,17,25,17.80
2021,05,05,17,26,17.80
2021,05,05,17,27,17.80
2021,05,05,17,28,17.80
2021,05,05,17,29,17.90
2021,05,05,17,30,17.90
2021,05,05,17,31,17.90
2021,05,05,17,32,17.90
2021,05,05,17,33,17.90
2021,05,05,17,34,17.90
2021,05,05,17,35,17.90
2021,05,05,17,36,17.80
2021,05,05,17,37,17.80
2021,05,05,17,38,17.70
2021,05,05,17,39,17.70
2021,05,05,17,40,17.70
2021,05,05,17,41,17.70
2021,05,05,17,42,17.70
2021,05,05,17,43,17.70
2021,05,05,17,44,17.70
2021,05,05,17,45,17.70
2021,05,05,17,46,17.70
2021,05,05,17,47,17.70
2021,05,05,17,48,17.70
2021,05,05,17,49,17.70
2021,05,05,17,50,17.60
2021,05,05,17,51,17.60
2021,05,05,17,52,17.60
2021,05,05,17,53,17.70
2021,05,05,17,54,17.70
2021,05,05,17,55,17.70
2021,05,05,17,56,17.70
2021,05,05,17,57,17.70
2021,05,05,17,58,17.70
2021,05,05,17,59,17.70
2021,05,05,18,00,17.80
2021,05,05,18,01,17.80
2021,05,05,18,02,17.80
2021,05,05,18,03,17.80
2021,05,05,18,04,17.80
2021,05,05,18,05,17.80
2021,05,05,18,06,17.80
2021,05,05,18,07,17.80
2021,05,05,18,08,17.80
2021,05,05,18,09,17.80
2021,05,05,18,10,17.80
2021,05,05,18,11,17.80
2021,05,05,18,12,17.80
2021,05,05,18,13,17.80
2021,05,05,18,14,17.80
2021,05,05,18,15,17.80
2021,05,05,18,16,17.80
2021,05,05,18,17,17.80
2021,05,05,18,18,17.70
2021,05,05,18,19,17.70
2021,05,05,18,20,17.70
2021,05,05,18,21,17.70
2021,05,05,18,22,17.70
2021,05,05,18,23,17.70
2021,05,05,18,24,17.70
2021,05,05,18,25,17.70
2021,05,05,18,26,17.70
2021,05,05,18,27,17.70
2021,05,05,18,28,17.70
2021,05,05,18,29,17.70
2021,05,05,18,30,17.70
2021,05,05,18,31,17.70
2021,05,05,18,32,17.60
2021,05,05,18,33,17.60
2021,05,05,18,34,17.60
2021,05,05,18,35,17.60
2021,05,05,18,36,17.60
2021,05,05,18,37,17.60
2021,05,05,18,38,17.60
2021,05,05,18,39,17.60
2021,05,05,18,40,17.50
2021,05,05,18,41,17.50
2021,05,05,18,42,17.50
2021,05,05,18,43,17.50
2021,05,05,18,44,17.50
2021,05,05,18,45,17.50
2021,05,05,18,46,17.50
2021,05,05,18,47,17.60
2021,05,05,18,48,17.60
2021,05,05,18,49,17.60
2021,05,05,18,50,17.50
2021,05,05,18,51,17.50
2021,05,05,18,52,17.50
2021,05,05,18,53,17.50
2021,05,05,18,54,17.50
2021,05,05,18,55,17.40
2021,05,05,18,56,17.40
2021,05,05,18,57,17.40
2021,05,05,18,58,17.40
2021,05,05,18,59,17.40
2021,05,05,19,00,17.40
2021,05,05,19,01,17.40
2021,05,05,19,02,17.40
2021,05,05,19,03,17.30
2021,05,05,19,04,17.30
2021,05,05,19,05,17.30
2021,05,05,19,06,17.30
2021,05,05,19,07,17.30
2021,05,05,19,08,17.30
2021,05,05,19,09,17.30
2021,05,05,19,10,17.30
2021,05,05,19,11,17.30
2021,05,05,19,12,17.30
2021,05,05,19,13,17.30
2021,05,05,19,14,17.30
2021,05,05,19,15,17.30
2021,05,05,19,16,17.30
2021,05,05,19,17,17.30
2021,05,05,19,18,17.30
2021,05,05,19,19,17.30
2021,05,05,19,20,17.30
2021,05,05,19,21,17.30
2021,05,05,19,22,17.30
2021,05,05,19,23,17.30
2021,05,05,19,24,17.30
2021,05,05,19,25,17.30
2021,05,05,19,26,17.30
2021,05,05,19,27,17.30
2021,05,05,19,28,17.30
2021,05,05,19,29,17.30
